Location: Unspecified
(0.0000°N, 0.0000°E)
Time: 08:54:10
(UTC+00:00)

TRS 6 - Pass Details

Date: 26 February 2019
Orbit: 3570 x 3718 km, 87.3° (Epoch: 19 March)

Event Time Altitude Azimuth Distance (km) Brightness Sun altitude
Rises 05:01:25 0° 35° (NE) 7,737 ? -17.7°
Reaches altitude 10° 05:08:13 10° 51° (NE) 6,682 ? -16.0°
Maximum altitude 05:20:35 21° 94° (E) 5,724 ? -12.9°
Drops below altitude 10° 05:32:35 10° 137° (SE) 6,621 ? -10.0°
Sets 05:38:52 0° 151° (SSE) 7,646 ? -8.4°
